Location: Zagreb
(45.8150°N, 15.9819°E)
Time: 13:51:47
(UTC+02:00)

STARLINK-1756 - Pass Details

Date: 21 September 2020
Orbit: 378 x 381 km, 53.0° (Epoch: 20 October)

Event Time Altitude Azimuth Distance (km) Brightness Sun altitude
Exits shadow 04:54:52 23° 337° (NNW) 857 4.6 -19.0°
Maximum altitude 04:55:15 24° 349° (N) 842 4.6 -19.0°
Drops below altitude 10° 04:57:53 10° 46° (NE) 1,402 6.7 -18.6°
Sets 05:00:10 0° 61° (ENE) 2,257 8.4 -18.2°
